Flag for Brazil Weather past 2 weeks in Salvador, Bahia, Brazil

Now
72 °F

Passing clouds.


Feels Like: 69 °F
Forecast: 74 / 85 °F
Wind: 5 mph from North

Location: Salvador Aeroporto

Current Time: Sep 22, 2014 at 5:24:17 AM

Latest Report: Sep 22, 2014 at 5:00 AM


Visibility: N/A

Pressure: 29.89 "Hg

Humidity: 88%

Dew point: 68 °F

Location of SalvadorLocation

Historic Weather in Salvador — Graph

°F

Salvador temperature yesterday

Maximum temperature yesterday: 82 °F (at 11:00 AM)
Minimum temperature yesterday: 72 °F (at 4:00 AM)
Average temperature yesterday: 77 °F

Past Weeks' High & Low Weather Summary

 TemperatureHumidityPressure
High82 °F (Sep 9, 12:00 PM)100% (Sep 7, 9:00 AM)30.18 "Hg (Sep 7, 9:00 AM)
Low37 °F (Sep 15, 8:00 AM)58% (Sep 8, 1:00 PM)29.89 "Hg (Sep 21, 2:00 PM)
Average76 °F76%30.05 "Hg
* Reported Sep 7 4:00 AM — Sep 22 4:00 AM, Salvador, Weather by CustomWeather, © 2014

Note: Actual official high and low records may vary slightly from our data, if they occured in-between our weather recording intervals... More about our weather records

Advertising

Salvador weather history for previous 24 hours

 ConditionsComfort  
Time TempWeatherWind HumidityBarometerVisibility
4:00 AM
Sep 22
72 °FPassing clouds.6 mph88%29.89 "HgN/A
3:00 AM73 °FPassing clouds.8 mph83%29.89 "HgN/A
2:00 AM75 °FPassing clouds.8 mph78%29.89 "HgN/A
1:00 AM75 °FPassing clouds.8 mph83%29.92 "HgN/A
12:00 AM75 °FPassing clouds.10 mph83%29.95 "HgN/A
11:00 PM
Sep 21
77 °FPassing clouds.12 mph79%29.95 "HgN/A
10:00 PM77 °FPassing clouds.12 mph79%29.95 "HgN/A
9:00 PM77 °FClear.13 mph79%29.95 "Hg10 mi
8:00 PM77 °FClear.15 mph79%29.95 "Hg10 mi
7:00 PM77 °FClear.10 mph79%29.92 "Hg10 mi
6:00 PM77 °FPassing clouds.14 mph79%29.89 "HgN/A
5:00 PM79 °FSunny.17 mph79%29.89 "Hg10 mi
4:00 PM81 °FSunny.17 mph74%29.89 "Hg10 mi
3:00 PM81 °FSunny.22 mph70%29.89 "Hg10 mi
2:00 PM82 °FSunny.18 mph70%29.89 "Hg10 mi
1:00 PM82 °FPassing clouds.15 mph70%29.95 "HgN/A
12:00 PM82 °FPassing clouds.14 mph70%29.95 "HgN/A
11:00 AM82 °FPassing clouds.16 mph70%29.98 "HgN/A
10:00 AM81 °FScattered clouds.15 mph70%30.01 "HgN/A
9:00 AM79 °FBroken clouds.10 mph74%30.01 "HgN/A
8:00 AM79 °FScattered clouds.5 mph74%30.04 "HgN/A
7:00 AM75 °FScattered clouds.2 mph83%30.01 "HgN/A
6:00 AM72 °FScattered clouds.1 mph88%29.98 "HgN/A
5:00 AM72 °FPassing clouds.2 mph88%29.98 "HgN/A
Weather by CustomWeather, © 2014

See weather overviewHow to use our weather pages